| time (UTC) | temp F | wind direction | speed MPH | gust MPH | rain 1hr in | rain 24hr in | rain mn in | humidity % | barometer mb |
| 20260509210035 | 51 | 0.0 | 0.0 | 0.00 | 0.23 | 0.23 | 94 | 1007.3 | |
| 20260509204536 | 51 | 0.0 | 0.0 | 0.01 | 0.23 | 0.23 | 94 | 1007.3 | |
| 20260509203030 | 51 | 0.0 | 0.0 | 0.02 | 0.23 | 0.23 | 95 | 1007.5 | |
| 20260509201526 | 50 | 0.0 | 0.0 | 0.02 | 0.23 | 0.23 | 95 | 1007.6 | |
| 20260509200024 | 50 | 0.0 | 0.0 | 0.03 | 0.23 | 0.23 | 95 | 1007.7 | |
| 20260509194524 | 50 | 0.0 | 0.0 | 0.03 | 0.22 | 0.22 | 95 | 1007.8 | |
| 20260509193027 | 50 | 0.0 | 0.0 | 0.06 | 0.21 | 0.21 | 95 | 1008.0 | |
| 20260509191527 | 50 | 0.0 | 0.0 | 0.08 | 0.21 | 0.21 | 94 | 1008.0 | |
| 20260509190028 | 50 | 0.0 | 0.0 | 0.09 | 0.20 | 0.20 | 95 | 1008.1 | |
| 20260509184530 | 49 | 0.0 | 0.0 | 0.10 | 0.19 | 0.19 | 94 | 1008.2 | |
| 20260509183011 | 49 | 0.0 | 0.0 | 0.07 | 0.15 | 0.15 | 94 | 1008.3 | |
| 20260509181507 | 49 | 0.0 | 0.0 | 0.05 | 0.12 | 0.12 | 94 | 1008.2 | |
| 20260509180005 | 49 | 0.0 | 0.0 | 0.04 | 0.10 | 0.10 | 94 | 1008.2 | |
| 20260509174505 | 49 | 0.0 | 0.0 | 0.03 | 0.09 | 0.09 | 95 | 1008.2 | |
| 20260509173004 | 49 | 0.0 | 0.0 | 0.02 | 0.08 | 0.08 | 95 | 1008.1 | |
| 20260509171600 | 49 | 0.0 | 0.0 | 0.01 | 0.07 | 0.07 | 94 | 1008.1 | |
| 20260509170101 | 49 | 0.0 | 0.0 | 0.01 | 0.06 | 0.06 | 94 | 1008.1 | |
| 20260509164532 | 49 | 0.0 | 0.0 | 0.01 | 0.06 | 0.06 | 94 | 1008.1 | |
| 20260509163039 | 49 | 0.0 | 0.0 | 0.01 | 0.06 | 0.06 | 94 | 1008.2 | |
| 20260509161531 | 49 | 0.0 | 0.0 | 0.01 | 0.06 | 0.06 | 95 | 1008.4 | |
| 20260509160029 | 49 | 0.0 | 0.0 | 0.00 | 0.05 | 0.05 | 95 | 1008.5 | |
| 20260509154527 | 49 | 0.0 | 0.0 | 0.00 | 0.05 | 0.05 | 95 | 1008.6 | |
| 20260509153034 | 48 | 0.0 | 0.0 | 0.00 | 0.05 | 0.05 | 96 | 1008.7 | |
| 20260509151520 | 0 | 0.0 | 0.0 | 0.00 | 0.05 | 0.05 | 1009.1 | ||
| 20260509150017 | 0 | 0.0 | 0.0 | 0.00 | 0.05 | 0.05 | 1009.2 | ||
| 20260509144511 | 0 | 0.0 | 0.0 | 0.00 | 0.05 | 0.05 | 1009.4 | ||
| 20260509143008 | 0 | 0.0 | 0.0 | 0.00 | 0.05 | 0.05 | 1009.5 | ||
| 20260509141503 | 0 | 0.0 | 0.0 | 0.00 | 0.05 | 0.05 | 1009.4 | ||
| 20260509134554 | 0 | 0.0 | 0.0 | 0.00 | 0.05 | 0.05 | 1009.3 | ||
| 20260509133050 | 0 | 0.0 | 0.0 | 0.00 | 0.05 | 0.05 | 1009.3 | ||
| 20260509131545 | 0 | 0.0 | 0.0 | 0.00 | 0.05 | 0.05 | 1009.6 | ||
| 20260509130042 | 0 | 0.0 | 0.0 | 0.00 | 0.05 | 0.05 | 1009.6 | ||
| 20260509124544 | 0 | 0.0 | 0.0 | 0.00 | 0.05 | 0.05 | 1009.6 | ||
| 20260509123035 | 0 | 0.0 | 0.0 | 0.00 | 0.05 | 0.05 | 1009.8 | ||
| 20260509121534 | 0 | 0.0 | 0.0 | 0.00 | 0.05 | 0.05 | 1009.7 | ||
| 20260509120034 | 0 | 0.0 | 0.0 | 0.00 | 0.05 | 0.05 | 1009.9 | ||
| 20260509114532 | 0 | 0.0 | 0.0 | 0.00 | 0.05 | 0.05 | 1010.0 | ||
| 20260509113036 | 0 | 0.0 | 0.0 | 0.00 | 0.05 | 0.05 | 1009.8 | ||
| 20260509111533 | 0 | 0.0 | 0.0 | 0.00 | 0.05 | 0.05 | 1009.9 | ||
| 20260509110032 | 0 | 0.0 | 0.0 | 0.00 | 0.05 | 0.05 | 1009.8 | ||
| 20260509104530 | 0 | 0.0 | 0.0 | 0.00 | 0.05 | 0.05 | 1009.7 | ||
| 20260509103030 | 0 | 0.0 | 0.0 | 0.00 | 0.05 | 0.05 | 1009.8 | ||
| 20260509101545 | 0 | 0.0 | 0.0 | 0.00 | 0.05 | 0.05 | 1009.8 | ||
| 20260509100032 | 0 | 0.0 | 0.0 | 0.00 | 0.05 | 0.05 | 1009.6 | ||
| 20260509094528 | 0 | 0.0 | 0.0 | 0.00 | 0.05 | 0.05 | 1009.8 | ||
| 20260509093026 | 0 | 0.0 | 0.0 | 0.00 | 0.05 | 0.05 | 1009.7 | ||
| 20260509091523 | 45 | 0.0 | 0.0 | 0.01 | 0.05 | 0.05 | 93 | 1009.7 | |
| 20260509090033 | 45 | 0.0 | 0.0 | 0.01 | 0.05 | 0.05 | 93 | 1009.9 | |
| 20260509084520 | 45 | 0.0 | 0.0 | 0.01 | 0.05 | 0.05 | 93 | 1009.9 | |
| 20260509083031 | 45 | 0.0 | 0.0 | 0.01 | 0.05 | 0.05 | 93 | 1010.0 | |
| 20260509081518 | 45 | 0.0 | 0.0 | 0.00 | 0.04 | 0.04 | 93 | 1010.2 | |
| 20260509080020 | 45 | 0.0 | 0.0 | 0.01 | 0.04 | 0.04 | 93 | 1010.5 | |
| 20260509074516 | 45 | 0.0 | 0.0 | 0.01 | 0.04 | 0.04 | 93 | 1010.5 | |
| 20260509073023 | 46 | 0.0 | 0.0 | 0.01 | 0.04 | 0.04 | 92 | 1010.5 | |
| 20260509071515 | 46 | 0.0 | 0.0 | 0.02 | 0.04 | 0.04 | 92 | 1010.5 | |
| 20260509070013 | 45 | 0.0 | 0.0 | 0.02 | 0.03 | 0.03 | 92 | 1010.5 | |
| 20260509064512 | 46 | 0.0 | 0.0 | 0.03 | 0.03 | 0.03 | 91 | 1010.4 | |
| 20260509063019 | 46 | 0.0 | 0.0 | 0.03 | 0.03 | 0.03 | 91 | 1010.8 | |
| 20260509061508 | 46 | 0.0 | 0.0 | 0.02 | 0.02 | 0.02 | 91 | 1010.9 | |
| 20260509060007 | 45 | 0.0 | 0.0 | 0.01 | 0.01 | 0.01 | 91 | 1011.0 | |
| 20260509054505 | 45 | 0.0 | 0.0 | 0.00 | 0.00 | 0.00 | 90 | 1011.2 | |
| 20260509053003 | 45 | 0.0 | 0.0 | 0.00 | 0.00 | 0.00 | 89 | 1011.2 | |
| 20260509051502 | 44 | 0.0 | 0.0 | 0.00 | 0.00 | 0.00 | 88 | 1011.1 | |
| 20260509050100 | 44 | 0.0 | 0.0 | 0.00 | 0.00 | 0.00 | 87 | 1011.0 | |
| 20260509044653 | 44 | 0.0 | 0.0 | 0.00 | 0.00 | 0.00 | 86 | 1011.1 | |
| 20260509043138 | 44 | 0.0 | 0.0 | 0.00 | 0.00 | 0.00 | 86 | 1011.2 | |
| 20260509041554 | 44 | 0.0 | 0.0 | 0.00 | 0.00 | 0.00 | 85 | 1011.4 | |
| 20260509040052 | 43 | 0.0 | 0.0 | 0.00 | 0.00 | 0.00 | 85 | 1011.5 | |
| 20260509034552 | 43 | 0.0 | 0.0 | 0.00 | 0.00 | 0.00 | 84 | 1011.5 | |
| 20260509033051 | 43 | 0.0 | 0.0 | 0.00 | 0.00 | 0.00 | 84 | 1011.4 | |
| 20260509031558 | 43 | 0.0 | 0.0 | 0.00 | 0.00 | 0.00 | 82 | 1011.3 | |
| 20260509030108 | 43 | 0.0 | 0.0 | 0.00 | 0.00 | 0.00 | 80 | 1011.4 | |
| 20260509024547 | 43 | 0.0 | 0.0 | 0.00 | 0.00 | 0.00 | 78 | 1011.6 | |
| 20260509023047 | 44 | 0.0 | 0.0 | 0.00 | 0.00 | 0.00 | 78 | 1011.5 | |
| 20260509021547 | 44 | 0.0 | 0.0 | 0.00 | 0.00 | 0.00 | 77 | 1011.5 | |
| 20260509020050 | 44 | 0.0 | 0.0 | 0.00 | 0.00 | 0.00 | 76 | 1011.7 | |
| 20260509014545 | 45 | 0.0 | 0.0 | 0.00 | 0.00 | 0.00 | 73 | 1011.6 | |
| 20260509013045 | 45 | 0.0 | 0.0 | 0.00 | 0.00 | 0.00 | 72 | 1011.5 | |
| 20260509011545 | 46 | 0.0 | 0.0 | 0.00 | 0.00 | 0.00 | 68 | 1011.2 | |
| 20260509010044 | 46 | 0.0 | 0.0 | 0.00 | 0.00 | 0.00 | 67 | 1011.2 | |
| 20260509004553 | 47 | 0.0 | 0.0 | 0.00 | 0.00 | 0.00 | 60 | 1010.9 | |
| 20260509003051 | 47 | 0.0 | 0.0 | 0.00 | 0.00 | 0.00 | 62 | 1010.8 | |
| 20260509001543 | 48 | 0.0 | 0.0 | 0.00 | 0.00 | 0.00 | 61 | 1010.7 | |
| 20260509000042 | 49 | 0.0 | 0.0 | 0.00 | 0.00 | 0.00 | 59 | 1010.6 | |
| 20260508234542 | 50 | 0.0 | 0.0 | 0.00 | 0.00 | 0.00 | 55 | 1010.4 | |
| 20260508233042 | 51 | 0.0 | 0.0 | 0.00 | 0.00 | 0.00 | 53 | 1010.2 | |
| 20260508231540 | 52 | 0.0 | 0.0 | 0.00 | 0.00 | 0.00 | 55 | 1010.0 | |
| 20260508230040 | 52 | 0.0 | 0.0 | 0.00 | 0.00 | 0.00 | 51 | 1010.1 | |
| 20260508224549 | 53 | 0.0 | 0.0 | 0.00 | 0.00 | 0.00 | 48 | 1010.1 | |
| 20260508223047 | 54 | 0.0 | 0.0 | 0.00 | 0.00 | 0.00 | 48 | 1010.1 | |
| 20260508221537 | 54 | 0.0 | 0.0 | 0.00 | 0.00 | 0.00 | 47 | 1010.1 | |
| 20260508220044 | 54 | 0.0 | 0.0 | 0.00 | 0.00 | 0.00 | 48 | 1010.0 | |
| 20260508214632 | 53 | 0.0 | 0.0 | 0.00 | 0.00 | 0.00 | 49 | 1010.1 | |
| 20260508213032 | 53 | 0.0 | 0.0 | 0.00 | 0.00 | 0.00 | 50 | 1010.3 | |
| 20260508211533 | 53 | 0.0 | 0.0 | 0.00 | 0.00 | 0.00 | 47 | 1010.3 |